Date String (YYYY-MM-DD hh:mm:ss) UTC,Instrument flags,Ambient pressure (hPa),Sample flow (lpm),Bypass flow (lpm),Sample temperature (°C),Ambient temperature (°C),ASC tube jacket temperature (°C),LED temperature (°C),Box temperature (°C),Sample RH (%),Span deviation,Mass concentration (μg/m³),Mass concentration (μg/m³),Mass concentration (μg/m³)
DateTimeUTC,F1_M11,P_M11,Q1_M11,Q2_M11,T1_M11,T2_M11,T3_M11,T4_M11,T5_M11,U1_M11,ZSPAN_M11,X0_M11,X2_M11,X1_M11
2022-07-14 19:00:00,,0829.9,4.99,0.00,29.4,27.8,00.0,38.0,31.3,24.3,0000.0,0012.97,0004.89,0004.21
2022-07-14 19:01:00,,0829.9,4.99,0.00,29.4,27.3,00.0,38.0,31.2,24.1,0000.0,0012.27,0004.87,0004.20
2022-07-14 19:02:00,,0829.9,5.00,0.00,29.3,27.2,00.0,38.0,31.2,24.0,0000.0,0011.56,0004.82,0004.18
2022-07-14 19:03:00,,0829.8,5.00,0.00,29.3,27.3,00.0,38.0,31.1,24.5,0000.0,0011.45,0004.81,0004.18
2022-07-14 19:04:00,,0829.9,5.01,0.00,29.3,27.4,00.0,38.0,31.1,26.1,0000.0,0011.34,0004.81,0004.17
2022-07-14 19:05:00,,0829.9,4.99,0.00,29.3,27.6,00.0,38.0,31.1,25.0,0000.0,0011.58,0004.81,0004.16
2022-07-14 19:06:00,,0829.9,5.01,0.00,29.3,27.8,00.0,38.0,31.2,24.6,0000.0,0011.13,0004.77,0004.15
2022-07-14 19:07:00,,0829.9,5.00,0.00,29.4,28.0,00.0,38.0,31.3,24.3,0000.0,0011.15,0004.77,0004.13
2022-07-14 19:08:00,,0829.8,4.99,0.00,29.4,27.8,00.0,38.0,31.3,23.9,0000.0,0011.23,0004.74,0004.11
2022-07-14 19:09:00,,0829.9,5.00,0.00,29.3,27.2,00.0,37.9,31.1,23.9,0000.0,0010.55,0004.71,0004.10
2022-07-14 19:10:00,,0829.9,5.00,0.00,29.3,27.1,00.0,37.9,31.1,23.5,0000.0,0009.50,0004.64,0004.07
2022-07-14 19:11:00,,0829.8,4.99,0.00,29.3,27.2,00.0,37.9,31.1,23.6,0000.0,0009.29,0004.62,0004.07
2022-07-14 19:12:00,,0829.8,5.01,0.00,29.3,27.4,00.0,37.9,31.0,23.9,0000.0,0009.46,0004.65,0004.09
2022-07-14 19:13:00,,0829.9,5.00,0.00,29.3,27.6,00.0,38.0,31.1,24.1,0000.0,0009.64,0004.69,0004.11
2022-07-14 19:14:00,,0829.9,5.00,0.00,29.3,27.8,00.0,38.0,31.2,24.0,0000.0,0009.75,0004.68,0004.12
2022-07-14 19:15:00,,0829.9,4.99,0.00,29.3,28.0,00.0,38.0,31.3,24.6,0000.0,0010.96,0004.70,0004.14
2022-07-14 19:16:00,,0829.9,5.00,0.00,29.4,28.1,00.0,38.0,31.3,24.1,0000.0,0010.79,0004.68,0004.16
2022-07-14 19:17:00,,0829.9,5.01,0.00,29.4,27.5,00.0,37.9,31.2,23.3,0000.0,0010.06,0004.70,0004.18
2022-07-14 19:18:00,,0829.9,5.00,0.00,29.3,27.1,00.0,37.9,31.1,23.7,0000.0,0010.34,0004.75,0004.19
2022-07-14 19:19:00,,0829.9,5.00,0.00,29.3,27.1,00.0,37.9,31.1,24.2,0000.0,0010.32,0004.79,0004.21
2022-07-14 19:20:00,,0829.9,5.00,0.00,29.3,27.3,00.0,37.9,31.0,24.2,0000.0,0010.54,0004.81,0004.23
2022-07-14 19:21:00,,0829.8,5.00,0.00,29.3,27.4,00.0,37.9,31.1,24.5,0000.0,0011.34,0004.83,0004.24
2022-07-14 19:22:00,,0829.8,5.00,0.00,29.3,27.7,00.0,37.9,31.1,24.7,0000.0,0011.34,0004.84,0004.24
2022-07-14 19:23:00,,0829.8,5.00,0.00,29.3,27.9,00.0,38.0,31.2,25.0,0000.0,0011.04,0004.82,0004.23
2022-07-14 19:24:00,,0829.8,5.00,0.00,29.3,28.1,00.0,38.0,31.3,24.6,0000.0,0011.01,0004.81,0004.23
2022-07-14 19:25:00,,0829.9,5.00,0.00,29.4,27.8,00.0,38.0,31.3,24.3,0000.0,0010.94,0004.79,0004.22
2022-07-14 19:26:00,,0829.9,5.00,0.00,29.3,27.3,00.0,37.9,31.2,24.3,0000.0,0009.70,0004.78,0004.20
2022-07-14 19:27:00,,0829.9,5.00,0.00,29.3,27.2,00.0,37.9,31.2,23.8,0000.0,0009.62,0004.78,0004.20
2022-07-14 19:28:00,,0829.9,5.00,0.00,29.3,27.3,00.0,37.9,31.1,24.1,0000.0,0009.90,0004.77,0004.19
2022-07-14 19:29:00,,0829.9,5.01,0.00,29.3,27.4,00.0,37.9,31.0,23.9,0000.0,0009.96,0004.76,0004.17
2022-07-14 19:30:00,,0829.8,4.99,0.00,29.3,27.6,00.0,37.9,31.1,23.3,0000.0,0011.01,0004.71,0004.14
2022-07-14 19:31:00,,0829.9,5.00,0.00,29.3,27.8,00.0,37.9,31.2,23.1,0000.0,0011.36,0004.63,0004.11
2022-07-14 19:32:00,,0829.9,5.01,0.00,29.3,28.0,00.0,38.0,31.2,23.2,0000.0,0011.13,0004.58,0004.08
2022-07-14 19:33:00,,0829.9,5.00,0.00,29.4,28.1,00.0,38.0,31.3,23.4,0000.0,0011.03,0004.55,0004.06
2022-07-14 19:34:00,,0829.9,4.99,0.00,29.4,27.6,00.0,38.0,31.2,23.4,0000.0,0010.99,0004.54,0004.05
2022-07-14 19:35:00,,0829.9,5.00,0.00,29.3,27.2,00.0,37.9,31.1,23.5,0000.0,0010.97,0004.54,0004.04
2022-07-14 19:36:00,,0829.9,5.01,0.00,29.3,27.2,00.0,37.9,31.1,23.0,0000.0,0011.12,0004.54,0004.03
2022-07-14 19:37:00,,0829.9,5.01,0.00,29.3,27.3,00.0,37.9,31.0,23.0,0000.0,0011.54,0004.56,0004.03
2022-07-14 19:38:00,,0829.8,4.99,0.00,29.3,27.5,00.0,37.9,31.1,23.4,0000.0,0012.05,0004.56,0004.02
2022-07-14 19:39:00,,0829.8,5.01,0.00,29.3,27.7,00.0,37.9,31.1,23.6,0000.0,0011.94,0004.55,0004.01
2022-07-14 19:40:00,,0829.9,4.99,0.00,29.3,27.9,00.0,38.0,31.2,23.1,0000.0,0011.80,0004.56,0004.01
2022-07-14 19:41:00,,0829.8,4.99,0.00,29.4,28.0,00.0,38.0,31.3,23.0,0000.0,0011.32,0004.54,0004.02
2022-07-14 19:42:00,,0829.8,5.00,0.00,29.3,27.5,00.0,37.9,31.2,23.5,0000.0,0010.92,0004.57,0004.02
2022-07-14 19:43:00,,0829.8,5.00,0.00,29.3,27.1,00.0,37.9,31.1,23.7,0000.0,0010.40,0004.63,0004.04
2022-07-14 19:44:00,,0829.8,5.00,0.00,29.3,27.1,00.0,37.9,31.1,23.8,0000.0,0010.28,0004.66,0004.05
2022-07-14 19:45:00,,0829.8,5.01,0.00,29.2,27.2,00.0,37.9,31.0,23.4,0000.0,0010.37,0004.66,0004.05
2022-07-14 19:46:00,,0829.8,5.01,0.00,29.2,27.4,00.0,37.9,31.0,23.3,0000.0,0011.03,0004.66,0004.06
2022-07-14 19:47:00,,0829.8,5.00,0.00,29.3,27.7,00.0,37.9,31.1,23.3,0000.0,0011.25,0004.66,0004.06
2022-07-14 19:48:00,,0829.8,4.99,0.00,29.3,27.9,00.0,37.9,31.2,22.9,0000.0,0010.96,0004.67,0004.06
2022-07-14 19:49:00,,0829.8,4.99,0.00,29.3,28.0,00.0,37.9,31.3,22.6,0000.0,0010.36,0004.67,0004.06
2022-07-14 19:50:00,,0829.8,5.01,0.00,29.3,27.5,00.0,37.9,31.2,22.9,0000.0,0011.14,0004.72,0004.06
2022-07-14 19:51:00,,0829.8,5.00,0.00,29.3,27.1,00.0,37.9,31.1,23.2,0000.0,0011.17,0004.71,0004.06
2022-07-14 19:52:00,,0829.8,4.98,0.00,29.2,27.1,00.0,37.9,31.1,23.2,0000.0,0010.86,0004.77,0004.07
2022-07-14 19:53:00,,0829.8,5.00,0.00,29.2,27.2,00.0,37.9,31.0,23.4,0000.0,0010.80,0004.79,0004.08
2022-07-14 19:54:00,,0829.8,4.98,0.00,29.2,27.4,00.0,37.9,31.0,23.4,0000.0,0010.82,0004.82,0004.09
2022-07-14 19:55:00,,0829.7,5.00,0.00,29.2,27.6,00.0,37.9,31.1,22.9,0000.0,0010.86,0004.82,0004.09
2022-07-14 19:56:00,,0829.8,4.99,0.00,29.3,27.8,00.0,37.9,31.2,22.7,0000.0,0010.84,0004.81,0004.08
2022-07-14 19:57:00,,0829.8,5.00,0.00,29.3,28.0,00.0,37.9,31.2,22.4,0000.0,0010.41,0004.80,0004.08
2022-07-14 19:58:00,,0829.8,5.01,0.00,29.3,27.8,00.0,37.9,31.3,22.4,0000.0,0009.81,0004.78,0004.06
2022-07-14 19:59:00,,0829.8,5.00,0.00,29.3,27.2,00.0,37.9,31.2,22.4,0000.0,0009.75,0004.79,0004.05
